Theta_e
310 310 309 309 310 310 309 310 309 310 311 311 312 311 311 311 311 311 310 309 308 308 308 307 307 307 307 307 308 308 308 308 306 306 307 306 306 305 305 306 306 306 307 307 308 308 308 307 306 306 306 308 308 308 309 307 313 330 330 317 313 312 312 309 306 306 308 310 306 301 304 303 304 304 302 302 302 303 304 304 303 302 302 302 302 303 304 304
309 310 310 310 310 310 310 310 310 310 311 311 312 311 310 310 308 309 310 311 309 308 308 308 307 307 307 307 307 309 309 307 306 305 306 306 306 305 305 306 306 306 306 307 307 306 309 308 306 305 307 309 308 309 308 306 312 327 331 319 314 315 310 306 307 306 306 309 306 302 302 303 304 304 302 303 304 303 303 304 303 303 303 302 301 302 303 303
310 310 310 311 311 311 311 311 311 310 311 311 311 311 309 306 306 306 308 311 309 308 308 308 308 307 307 308 308 309 308 307 307 305 305 306 306 305 305 307 306 306 306 306 306 306 308 308 306 304 308 309 307 310 310 309 311 315 325 325 317 315 308 303 306 305 306 307 305 302 301 302 303 304 302 302 304 303 303 303 303 304 304 303 301 300 302 302
309 310 310 311 311 311 311 311 311 311 310 310 310 311 309 307 306 306 307 310 311 309 308 308 308 307 308 308 309 309 308 310 309 305 305 306 305 305 306 307 306 307 306 306 305 305 306 305 305 305 309 311 310 312 309 309 310 309 315 320 313 309 307 304 305 305 304 304 304 303 302 302 302 303 302 303 304 304 303 302 303 305 304 303 301 300 300 301
309 309 310 310 311 311 311 311 311 311 311 310 310 310 310 308 306 307 307 308 311 311 309 308 307 308 308 308 310 311 312 314 308 304 306 306 305 305 306 307 307 307 306 306 306 306 305 304 305 309 311 310 312 313 307 305 307 307 306 307 306 305 305 305 304 305 302 301 303 303 302 303 303 302 302 303 304 305 305 303 302 303 303 303 301 299 300 299
309 309 309 309 310 311 312 312 311 312 312 311 310 310 311 310 307 307 306 306 310 311 310 308 307 308 308 309 311 313 315 312 306 305 306 306 305 305 306 307 307 307 306 306 306 306 306 306 307 311 312 310 310 309 306 303 304 309 305 303 305 304 305 305 304 305 303 302 303 303 303 303 303 304 303 303 303 305 306 305 302 301 300 300 300 299 300 299
309 309 309 309 309 310 311 311 312 312 312 312 312 311 311 310 309 307 307 307 307 310 311 309 308 308 309 309 308 313 315 308 304 306 307 305 305 305 306 307 307 307 306 306 306 307 308 309 310 311 311 308 307 306 306 304 305 311 307 304 304 303 305 304 303 305 304 304 304 303 303 303 305 305 303 303 303 303 303 301 299 298 298 298 299 299 299 299
309 309 309 309 309 309 310 311 312 312 312 313 312 312 311 312 310 308 307 307 307 310 310 310 310 309 310 309 310 317 315 306 304 307 306 306 305 305 306 306 307 306 306 306 305 306 308 309 309 309 310 307 306 307 305 304 307 310 307 304 304 304 304 303 304 306 305 304 302 302 303 305 306 303 302 304 303 303 301 300 299 299 299 299 300 300 299 299
307 308 309 310 309 309 309 310 310 312 312 312 313 312 312 312 310 309 308 306 309 310 309 310 309 309 309 308 316 320 309 304 306 307 307 307 306 305 306 306 306 307 307 306 305 305 307 309 308 308 309 306 306 307 305 306 307 306 305 304 304 304 303 303 304 305 304 304 302 302 305 305 304 302 303 305 303 302 302 301 301 301 302 302 301 299 297 298
306 307 308 309 309 309 309 309 310 311 311 311 312 312 313 313 311 309 308 307 309 309 308 309 307 309 309 309 318 315 304 306 307 307 308 307 307 306 306 307 306 307 306 306 306 305 307 308 306 305 308 307 306 306 305 306 305 304 305 305 304 304 303 303 304 304 304 303 303 303 305 305 302 302 303 305 304 303 303 303 301 301 303 302 301 299 297 297
306 306 306 307 309 309 308 309 309 310 311 311 311 312 313 313 312 309 308 307 308 308 308 308 308 309 308 310 316 311 304 307 307 307 308 307 307 307 306 306 307 307 306 306 306 305 306 305 304 304 306 306 306 305 304 304 304 303 304 304 304 304 303 303 303 304 303 303 303 303 303 303 301 303 305 304 305 304 303 305 303 301 302 301 301 300 297 296
306 306 306 306 307 307 308 308 309 310 310 310 310 311 313 313 313 310 307 307 308 308 307 308 308 308 309 309 310 307 305 307 307 306 307 307 308 307 307 306 306 306 306 306 305 306 306 304 304 306 307 305 305 305 303 303 304 303 304 305 307 309 307 303 304 303 302 304 304 302 304 307 303 304 307 304 304 305 303 305 305 301 301 300 301 301 299 297
305 306 306 305 306 306 307 308 308 310 310 309 309 310 312 313 313 310 308 307 307 308 308 308 307 308 313 312 307 306 307 307 306 306 307 307 307 307 308 307 307 307 306 306 306 306 305 306 305 305 305 305 305 303 303 303 304 304 304 305 310 316 313 303 302 304 302 305 305 304 307 311 308 306 308 304 301 304 304 306 306 303 301 300 300 301 301 298
305 306 306 306 306 305 306 308 308 310 310 310 309 309 311 313 312 311 309 307 307 308 309 309 307 307 311 310 306 306 307 307 307 307 308 307 307 307 307 308 309 308 307 307 307 306 306 306 305 305 303 305 304 301 305 305 304 306 305 310 314 313 315 309 304 304 304 305 305 304 307 310 309 309 309 305 302 304 307 309 307 305 303 301 300 300 301 299
305 305 305 306 305 305 306 307 309 309 309 310 309 309 310 312 312 312 311 308 307 307 310 311 308 310 314 309 305 307 306 307 307 307 308 307 307 307 307 309 309 310 311 310 309 308 306 306 306 306 303 304 305 307 314 311 312 314 308 317 321 311 317 317 306 305 304 304 304 304 308 311 308 309 308 305 305 305 306 307 307 307 305 302 301 300 301 300
305 305 305 306 305 306 305 307 309 309 309 310 310 310 309 311 312 312 312 308 307 307 310 312 308 311 316 309 306 307 306 307 307 308 308 307 306 307 307 308 309 310 311 313 313 311 309 309 308 305 306 309 313 323 327 321 329 328 313 315 320 311 315 315 305 305 306 304 304 304 308 310 309 310 308 304 305 305 305 305 304 305 305 303 302 300 301 300
305 305 305 305 306 306 305 307 308 308 309 309 310 311 310 310 311 313 312 308 308 309 309 311 309 310 312 308 308 309 308 307 306 309 308 305 307 308 307 310 311 311 313 313 313 313 312 315 311 307 311 310 314 331 327 316 325 328 319 318 317 311 311 311 308 306 305 304 305 305 306 308 308 307 305 304 304 305 306 306 305 304 304 303 302 301 301 301
304 305 305 305 306 305 305 307 308 308 309 309 310 311 311 311 311 313 312 308 308 307 309 312 310 311 309 307 308 308 308 306 306 309 307 305 309 309 311 313 311 312 321 319 313 316 316 318 318 315 318 313 315 330 322 314 318 316 318 317 313 313 312 311 311 306 304 305 306 307 307 308 307 304 305 305 304 306 306 306 305 304 303 303 302 302 302 301
304 305 305 305 305 305 306 307 308 308 308 310 310 311 313 314 316 315 309 309 312 309 311 314 313 315 310 307 307 305 306 305 308 310 305 306 309 311 313 313 314 317 325 324 317 320 320 321 322 316 316 313 312 317 313 315 318 314 315 313 310 314 315 313 310 305 304 306 308 310 309 308 307 307 310 308 304 306 307 307 308 307 305 303 303 302 302 302
305 305 304 305 305 305 306 306 308 307 308 310 310 315 320 321 324 324 315 313 314 312 314 315 315 315 310 307 307 307 308 307 311 310 305 307 310 313 311 313 329 330 322 321 315 316 319 321 318 315 316 313 309 308 306 307 309 310 312 313 313 315 317 315 309 305 305 306 311 312 309 308 308 310 311 307 307 312 314 314 315 313 310 306 304 304 303 303
304 305 305 305 305 305 306 307 308 307 309 309 310 317 321 320 322 322 317 314 309 306 311 311 310 312 308 306 307 308 310 312 312 308 304 307 310 312 310 317 334 325 318 321 316 317 324 319 313 315 318 313 308 307 307 307 308 309 312 314 316 316 317 313 306 307 306 305 313 313 309 312 313 312 310 309 314 319 316 314 315 314 313 311 308 307 306 305
304 305 305 305 305 306 305 307 308 307 310 310 309 316 317 314 314 314 314 316 309 306 310 309 309 314 310 308 308 307 312 314 310 308 305 308 313 314 317 327 330 317 321 324 318 320 325 313 308 309 311 308 307 309 307 307 309 312 314 314 313 312 313 309 305 309 307 306 317 315 310 317 317 313 314 314 317 318 314 312 312 311 313 315 312 311 311 310
303 304 304 305 305 305 306 307 309 308 309 312 310 311 310 308 310 311 312 315 310 307 310 310 310 320 317 309 307 308 313 311 308 310 306 308 316 317 323 336 331 321 326 329 321 316 312 308 306 305 306 306 309 311 308 308 310 315 318 314 312 311 309 306 306 311 309 306 313 312 312 321 320 316 317 314 312 315 317 317 316 312 314 316 315 314 314 317
304 304 304 305 304 306 306 307 310 308 309 313 310 307 307 307 307 308 312 314 313 310 309 307 309 320 318 307 305 310 314 309 309 309 305 310 317 315 319 327 329 326 321 323 328 320 308 304 304 305 307 308 310 315 316 315 314 317 319 313 312 311 307 307 310 310 311 308 308 311 314 321 322 320 319 316 314 313 314 319 319 316 315 315 316 315 314 317
303 303 304 305 305 306 305 308 311 307 310 313 310 306 306 307 306 307 313 314 316 316 308 305 310 314 310 306 306 309 312 309 307 305 304 309 315 312 311 312 320 320 313 313 320 316 308 302 303 309 313 313 313 315 316 314 311 314 315 310 308 310 308 312 314 312 312 312 309 309 312 319 327 327 320 317 318 312 311 317 319 317 318 316 316 315 314 316
302 303 304 304 305 305 305 311 309 307 314 312 308 308 306 307 307 308 317 317 318 321 310 305 309 309 307 308 309 308 309 308 305 304 306 307 309 309 306 308 311 311 314 315 312 307 306 304 305 311 316 317 317 315 310 308 311 306 308 308 309 310 309 313 316 311 310 311 308 309 311 315 323 325 319 318 319 315 312 315 317 316 318 317 316 315 315 316
302 303 303 304 304 305 308 311 307 309 317 312 308 308 305 308 307 306 316 315 314 318 311 306 307 307 308 308 310 309 305 308 307 306 307 306 308 309 308 311 308 308 312 313 307 306 306 307 309 311 316 318 317 316 310 306 308 303 307 308 310 309 308 312 313 311 312 312 315 320 315 309 317 321 318 314 314 315 313 312 315 316 316 317 317 316 316 316
302 302 303 304 304 304 306 307 307 309 313 311 309 308 307 309 307 310 317 310 308 314 312 309 307 307 309 306 309 313 311 313 311 307 306 306 308 312 315 315 311 312 311 309 304 308 305 308 310 311 315 316 315 314 309 306 304 306 306 306 306 307 309 313 315 316 316 311 318 329 315 308 322 327 319 313 311 313 312 311 313 314 315 317 318 318 318 318
301 302 303 304 304 305 306 306 308 309 309 310 308 308 308 307 309 318 319 309 308 313 310 309 306 307 311 309 310 316 315 313 311 309 308 306 305 310 313 313 315 316 309 309 314 311 304 305 307 309 310 311 310 308 306 308 306 306 305 306 309 310 310 313 315 318 320 315 316 324 312 307 319 326 321 314 312 312 310 310 313 313 315 316 318 319 319 319
300 302 303 304 304 307 308 307 310 309 307 308 307 308 307 311 323 326 316 312 312 310 308 309 307 307 311 308 307 313 313 311 314 312 310 309 308 310 308 309 318 321 314 315 316 309 304 303 304 307 308 307 306 305 305 306 306 305 307 311 314 315 312 313 316 317 318 321 323 322 313 306 310 321 321 312 310 312 311 311 312 312 313 314 317 319 319 319
300 301 302 304 305 306 307 309 314 311 307 307 307 307 307 316 331 326 313 313 311 309 308 308 310 312 314 309 308 313 311 312 315 314 313 312 309 311 309 308 314 320 328 326 310 306 307 307 306 304 304 305 305 307 305 303 306 307 313 316 312 315 314 314 325 322 313 320 325 322 315 306 308 319 319 314 312 312 313 313 313 313 312 312 316 318 318 320
299 300 302 304 304 305 305 308 312 308 306 307 306 312 318 318 320 321 320 317 309 310 310 308 312 316 315 312 314 317 311 308 313 313 315 312 307 310 314 315 313 310 324 326 310 309 311 309 306 302 302 304 306 308 306 306 310 310 316 323 316 318 317 316 329 320 309 317 316 314 312 305 309 316 313 316 314 310 312 313 314 315 314 314 314 315 317 321
299 300 301 303 304 304 305 305 306 305 306 308 309 320 328 322 319 323 324 316 306 309 311 309 312 314 313 313 314 315 309 307 312 311 310 309 308 310 312 316 314 306 315 318 310 311 312 308 306 305 305 302 304 309 308 311 312 309 313 319 317 317 311 313 322 312 307 316 311 307 309 309 314 313 312 318 313 311 313 312 316 320 320 318 314 316 323 323
299 300 300 303 303 304 305 304 305 306 306 308 316 323 321 320 324 322 320 314 308 309 310 310 311 311 311 312 312 311 309 309 312 310 309 308 308 313 314 310 308 311 317 313 307 310 312 309 307 306 306 303 304 308 309 310 309 309 312 312 313 315 308 310 319 314 311 317 314 306 308 319 318 307 311 317 311 312 313 312 316 319 322 322 319 322 325 322
299 300 301 303 303 304 305 304 305 305 305 312 321 322 316 318 322 321 323 320 312 311 310 309 311 310 311 314 312 309 308 309 310 308 308 309 311 318 322 317 312 312 314 312 310 307 306 308 308 304 303 302 306 304 302 307 306 309 310 308 309 314 316 314 312 315 313 312 317 312 311 321 315 304 310 312 310 312 311 313 314 316 321 322 324 326 323 323
299 302 304 304 303 305 304 304 306 304 308 315 316 314 317 320 319 319 322 318 314 314 311 311 312 310 312 315 312 308 307 309 309 307 308 309 312 314 319 323 317 311 313 318 316 309 305 308 306 304 303 300 302 303 301 306 305 305 309 312 309 307 317 317 306 309 310 309 317 314 311 316 309 308 314 310 311 312 310 312 314 318 324 322 324 327 322 323
300 304 307 305 305 306 305 305 306 305 311 315 313 316 320 318 317 320 318 311 313 317 314 314 313 311 314 314 312 311 309 308 307 308 312 311 312 313 315 317 312 310 315 314 313 314 313 309 305 303 305 301 298 301 302 303 303 304 306 311 307 304 313 315 308 314 312 311 320 316 311 313 309 312 316 311 312 312 310 314 315 318 321 321 324 324 320 321
301 306 309 307 305 306 307 306 304 307 315 313 312 320 320 313 312 318 317 310 311 315 314 315 312 311 314 313 314 312 308 311 311 310 313 312 312 316 315 314 310 309 312 307 305 311 310 312 311 301 303 304 299 300 303 302 300 302 304 304 304 309 317 313 311 317 312 308 318 321 316 311 308 314 316 311 313 313 312 314 315 316 317 321 324 320 319 324
301 306 310 308 306 306 307 306 305 310 316 312 313 319 318 315 313 314 315 312 312 313 313 314 310 310 315 315 317 313 307 314 316 310 311 309 309 312 309 312 311 308 310 306 304 311 308 309 314 303 300 304 302 302 307 308 302 300 303 304 305 313 320 315 310 315 315 309 312 323 324 315 313 322 321 313 313 315 315 315 317 320 320 322 323 319 320 325
302 306 311 310 308 309 308 306 307 311 313 313 316 318 313 313 313 311 312 313 312 311 312 317 312 309 314 314 315 313 309 315 316 310 310 307 309 311 309 313 313 307 308 304 304 315 307 301 312 308 300 303 306 307 310 313 308 304 307 309 307 307 309 309 308 312 319 317 314 316 320 319 317 318 320 315 312 315 319 319 322 323 322 324 324 322 322 325
303 308 312 310 308 310 307 305 309 312 312 312 314 314 310 312 314 313 310 310 310 309 311 318 316 313 317 315 315 314 309 313 314 310 310 308 308 309 307 310 314 308 308 305 306 314 307 306 319 315 306 311 316 307 301 304 306 306 310 314 311 309 311 310 310 311 311 313 316 313 311 318 318 310 314 314 311 317 322 321 321 319 319 327 328 323 322 325
306 310 311 308 307 308 306 308 311 311 314 314 313 312 312 314 315 313 310 309 310 308 308 313 314 316 320 316 316 315 311 313 312 309 311 311 310 309 304 301 306 307 308 311 311 311 311 313 317 316 316 314 308 301 298 299 300 300 304 307 307 311 316 316 316 316 310 306 312 311 308 317 319 310 311 313 311 319 322 319 317 315 319 327 326 323 324 325
310 312 309 306 307 306 305 309 310 310 315 315 311 310 312 314 315 311 308 308 309 308 307 310 311 313 315 312 311 312 310 312 313 311 315 315 311 309 302 299 304 306 308 310 309 306 308 312 310 315 323 314 304 301 299 297 299 302 303 303 306 311 316 322 322 319 313 309 310 310 308 317 324 317 315 317 317 318 318 316 314 314 321 325 323 323 327 327
311 311 309 306 306 306 306 309 310 311 314 312 309 309 310 312 314 311 309 309 311 312 311 311 310 309 312 310 309 312 310 309 311 311 311 313 309 303 300 301 304 306 308 311 310 305 305 313 314 313 318 319 316 311 306 303 302 306 309 306 307 311 311 314 313 307 309 314 314 313 312 317 326 324 318 316 316 316 315 314 314 314 318 319 319 323 326 326
308 308 309 307 305 306 308 311 312 313 313 310 310 312 311 310 312 312 313 313 315 315 313 311 310 310 311 309 307 310 308 306 309 309 307 309 309 303 302 303 303 307 309 307 307 306 305 311 316 315 312 312 316 318 320 319 309 306 311 309 307 308 307 310 312 307 310 314 310 312 314 312 315 318 314 312 313 312 311 312 313 315 315 314 316 320 323 326
306 306 309 308 306 307 308 308 311 313 312 310 310 312 312 311 310 310 311 312 313 314 312 310 310 310 309 307 306 309 307 305 305 307 308 311 310 305 303 303 304 307 308 305 305 309 308 309 313 319 317 313 315 320 318 316 312 309 311 309 306 306 306 312 316 312 314 314 309 311 312 308 308 309 308 310 311 309 308 308 312 316 316 314 315 319 322 324
306 308 312 312 308 308 308 308 310 311 312 311 309 311 312 311 310 309 308 308 310 311 310 309 310 309 308 308 308 308 308 305 304 305 309 312 309 304 300 301 304 305 306 305 304 307 309 309 310 312 312 311 316 318 311 308 312 315 313 311 309 306 306 309 312 311 314 313 309 309 309 308 308 307 306 307 306 307 309 310 312 315 314 312 313 317 320 322
306 308 311 310 308 310 309 309 310 310 311 310 308 311 312 310 310 311 309 307 307 308 308 308 310 313 313 311 310 308 307 306 306 307 309 310 308 305 302 301 301 302 304 303 302 307 313 313 310 307 308 311 313 314 312 309 310 313 315 315 312 308 307 308 308 310 311 309 307 310 312 311 308 306 306 306 305 307 309 311 312 312 311 311 313 317 318 320
305 306 307 305 306 312 311 309 310 309 309 309 308 310 311 310 310 311 310 309 308 309 309 309 311 315 315 312 311 311 309 309 309 311 311 310 309 308 307 306 303 300 302 302 302 306 311 314 312 305 306 313 313 310 310 309 309 311 311 312 311 310 309 307 307 307 308 308 308 309 310 309 306 305 306 305 306 307 307 308 308 308 308 310 315 319 319 322
305 306 307 305 306 311 310 308 310 309 307 308 308 308 309 310 310 309 309 311 311 312 309 308 312 315 313 311 311 310 312 315 316 316 314 311 310 309 309 313 312 303 300 303 303 301 304 314 315 307 308 317 312 306 307 306 306 309 308 307 308 309 308 305 305 305 305 306 307 306 306 306 304 304 305 304 305 306 306 307 307 307 309 313 317 320 320 323
305 304 305 305 307 310 310 308 309 309 307 307 308 308 307 309 310 308 309 310 311 313 311 309 310 312 311 310 310 310 312 315 316 320 318 313 312 312 308 310 316 310 304 303 305 302 302 310 311 306 310 319 310 304 307 306 304 308 310 307 305 307 308 306 304 305 305 305 306 305 305 305 304 304 306 307 308 310 311 312 313 316 319 319 319 321 321 322
305 304 304 304 306 309 309 309 309 308 308 307 308 308 308 308 309 308 309 309 310 312 313 311 310 310 311 311 310 309 311 312 315 318 316 313 315 316 310 308 312 314 308 304 306 306 305 310 314 310 312 317 308 304 308 309 308 313 316 313 308 306 305 305 305 305 304 304 306 305 305 305 306 306 306 309 312 315 318 320 320 322 325 323 321 319 320 322
Wind_Speed
10 10 11 12 12 13 13 13 14 13 12 10 9 8 7 7 6 6 5 4 3 4 6 3 2 3 6 10 10 10 6 3 11 20 16 12 17 14 9 5 2 1 0 2 4 5 5 4 5 6 4 1 1 2 1 1 2 4 4 4 3 3 3 5 6 6 4 3 5 6 7 9 5 3 1 2 2 4 5 6 6 7 10 12 11 8 7 6
9 9 10 11 11 12 12 13 13 13 12 11 10 8 7 7 7 6 3 3 2 3 5 5 5 5 9 10 11 12 3 4 6 16 15 15 17 13 8 4 2 2 3 4 5 5 3 4 6 6 3 0 1 2 2 3 4 4 4 4 3 5 3 3 5 5 3 3 6 7 6 7 7 5 3 3 6 4 6 8 5 8 13 16 15 10 9 11
10 9 9 9 10 10 11 11 12 12 12 11 10 9 8 7 8 9 5 3 2 1 3 5 5 6 9 10 13 9 4 6 4 9 14 17 14 10 7 3 3 3 5 5 6 6 4 6 7 4 1 2 2 3 4 5 4 3 4 3 4 6 3 3 3 4 5 4 8 6 5 5 5 5 3 4 6 4 9 10 7 11 15 14 12 11 12 15
11 9 9 8 8 9 9 10 11 11 12 12 10 9 8 7 9 11 8 3 2 2 3 4 5 7 7 10 12 4 7 3 4 7 14 15 11 8 5 4 4 4 6 7 8 9 8 8 5 2 2 3 4 4 4 4 2 2 4 3 5 3 2 2 2 3 4 5 9 6 5 4 5 4 3 5 3 7 10 12 12 15 17 13 9 12 16 18
11 10 9 8 8 8 8 8 9 10 12 12 12 11 9 8 9 11 10 6 3 3 3 4 5 7 6 10 8 5 5 3 4 10 14 13 10 7 3 4 4 5 7 8 9 9 7 5 1 3 4 3 5 5 3 4 3 4 2 2 4 3 2 2 1 3 0 5 7 8 7 5 3 2 5 7 6 8 8 10 14 15 15 11 11 15 16 17
12 11 10 9 8 8 8 8 8 9 11 12 13 12 11 9 9 11 10 8 4 3 4 4 5 6 5 8 5 4 4 1 5 12 13 13 11 6 3 3 4 5 7 7 9 7 4 0 4 3 3 4 4 4 2 5 3 4 0 1 2 2 3 0 2 3 2 7 7 7 4 3 3 4 5 9 13 13 6 6 10 14 17 14 13 15 14 16
12 11 11 10 10 9 8 8 8 9 10 12 12 12 12 11 10 10 9 9 7 3 4 4 6 5 5 4 2 5 5 1 8 13 12 13 11 6 2 3 4 5 6 7 8 5 2 5 5 4 5 4 2 3 1 5 5 6 2 1 2 1 2 0 1 2 4 7 6 5 1 1 6 5 2 8 19 17 10 7 6 10 14 13 11 13 15 18
12 12 11 11 11 10 9 8 8 9 10 11 12 12 11 12 11 11 9 9 8 2 2 3 6 6 5 4 2 5 4 3 11 13 12 12 11 8 2 4 4 5 5 5 7 4 1 5 4 3 5 2 3 3 1 3 6 5 3 2 0 1 1 2 2 4 5 3 2 1 2 5 8 3 4 13 20 15 12 12 10 8 6 7 10 12 15 17
13 12 12 12 11 11 10 9 9 8 10 10 11 12 11 12 12 12 11 9 7 4 2 4 5 6 5 2 4 4 3 5 10 12 12 11 11 9 3 2 3 5 4 3 6 2 1 2 3 4 5 3 4 2 2 2 2 2 4 3 1 1 3 3 3 3 3 1 1 0 5 7 5 3 7 18 19 12 9 10 12 10 8 8 9 10 13 15
13 13 12 12 12 12 11 10 9 9 9 10 10 11 11 12 12 13 12 9 4 4 4 8 7 2 6 2 6 4 3 5 9 10 11 11 10 8 4 2 1 3 1 1 5 4 2 3 5 6 8 4 3 3 3 2 2 3 6 5 4 1 3 2 2 3 3 2 2 2 7 6 4 2 6 12 8 4 5 8 9 9 12 12 9 10 14 16
12 13 13 13 12 12 12 11 10 9 10 10 10 10 11 12 12 14 13 8 2 1 3 7 9 6 5 5 7 3 2 6 7 10 12 10 9 10 8 6 2 1 2 4 6 5 3 4 8 6 3 3 3 5 5 3 4 4 6 3 5 5 3 0 1 3 3 2 4 5 6 5 2 1 11 14 3 3 3 8 8 9 12 13 11 10 11 15
11 12 13 14 13 13 13 12 11 10 10 10 10 9 10 12 13 14 13 7 3 2 2 3 4 3 7 9 5 2 3 6 8 11 11 9 7 9 11 9 6 2 2 4 5 4 1 5 7 6 1 4 3 4 2 2 4 3 3 1 6 7 4 2 1 2 2 1 4 4 4 6 3 8 18 14 4 6 4 8 7 9 11 10 11 9 9 15
12 12 13 14 14 13 13 12 12 11 11 11 10 9 9 10 12 13 12 8 3 2 2 4 3 2 4 5 2 2 4 5 8 9 8 8 5 6 8 7 9 8 5 8 7 7 4 7 13 10 3 7 3 1 4 3 3 1 1 3 3 7 5 4 1 2 3 0 3 3 4 6 7 15 19 10 5 6 7 8 8 7 8 8 8 8 9 13
12 12 12 13 14 14 13 12 12 11 12 12 11 9 8 8 10 11 12 8 2 2 4 4 4 4 5 1 2 4 5 4 8 10 9 10 6 4 6 6 7 8 9 9 9 10 9 11 17 11 2 5 4 2 4 4 3 1 2 2 3 3 3 5 1 3 2 0 3 4 3 8 8 12 15 10 5 5 7 9 8 7 7 7 7 8 9 11
13 12 12 13 14 14 13 12 12 12 12 12 12 10 8 7 8 10 11 8 2 1 3 3 2 3 6 2 2 3 6 3 8 13 12 13 9 4 5 5 6 7 7 7 7 9 9 10 12 7 1 3 4 5 4 4 3 4 2 3 4 1 4 8 2 4 2 3 2 4 3 8 10 10 10 5 1 3 8 10 8 8 8 7 7 7 8 10
14 13 13 12 14 14 13 12 12 12 13 13 12 11 10 9 9 11 11 7 3 2 1 2 3 4 5 1 1 2 4 4 8 11 10 12 10 7 9 5 3 5 4 5 6 6 9 10 6 3 3 3 5 5 4 5 5 4 3 2 3 1 3 6 2 2 2 3 2 1 3 6 9 9 8 5 5 6 9 11 10 9 9 8 7 7 7 8
14 14 13 12 13 14 13 12 12 13 13 13 13 11 9 10 12 12 10 5 2 1 1 2 3 5 4 1 1 2 4 5 9 10 9 10 8 8 9 4 2 4 3 4 5 4 7 7 2 1 4 4 2 4 5 4 4 4 3 1 4 2 3 4 3 2 1 1 3 2 4 9 12 12 13 10 7 7 8 10 11 9 8 8 7 7 7 7
14 14 14 13 13 14 13 12 12 13 13 12 13 12 9 11 12 10 7 2 1 2 3 3 4 4 2 2 0 3 7 8 10 9 10 10 7 7 7 4 3 5 3 5 6 5 5 4 2 2 4 5 4 5 4 3 4 3 1 0 3 4 4 4 3 1 3 1 5 3 4 13 16 14 14 8 3 5 8 9 9 9 8 8 7 7 7 7
14 14 14 13 13 13 13 12 12 13 13 11 11 11 9 10 8 5 8 5 1 0 1 2 3 2 2 3 3 7 9 9 8 7 11 12 7 4 4 5 4 4 4 3 5 5 3 4 5 4 2 3 3 4 5 5 5 5 4 3 3 4 4 6 4 2 1 3 6 5 5 11 15 16 14 9 5 5 9 7 7 8 7 7 6 7 7 7
13 13 14 14 13 13 12 11 12 13 13 12 10 8 5 5 4 4 8 9 2 2 1 1 1 1 2 3 6 10 7 4 3 5 13 15 7 2 3 6 7 7 5 1 3 3 4 5 3 3 4 3 3 3 3 2 4 4 3 3 4 4 5 5 3 3 2 3 6 5 5 11 13 14 13 10 8 6 7 7 7 7 6 6 6 7 8 7
13 13 13 14 13 13 12 11 11 12 11 11 11 6 1 1 2 2 3 4 1 3 1 2 3 1 2 3 7 8 3 0 2 5 14 14 5 1 3 5 6 5 4 2 3 4 6 6 2 6 7 6 3 1 2 2 3 3 3 3 3 3 5 5 2 4 5 3 6 3 6 12 11 11 11 8 7 6 6 6 7 8 7 6 6 8 8 7
13 12 13 13 13 13 12 10 11 11 9 9 9 5 3 2 1 1 1 1 3 2 2 3 1 3 3 3 6 6 3 3 3 6 14 14 6 2 3 5 7 2 4 3 2 6 6 2 5 5 4 3 2 2 3 1 2 1 2 1 3 3 4 6 3 5 5 2 5 5 7 11 11 9 10 6 4 5 5 5 6 7 7 7 7 7 7 7
12 13 12 12 13 12 11 10 9 8 8 9 8 4 3 3 2 0 1 1 2 2 1 2 0 3 4 2 3 4 4 3 1 6 15 14 5 3 3 6 5 2 5 4 3 3 2 2 4 2 2 3 3 4 5 3 2 1 0 1 3 4 3 3 4 7 6 1 5 7 5 7 8 7 7 5 4 5 6 5 4 4 5 7 7 6 6 7
12 13 12 12 12 11 11 9 6 8 10 9 8 6 3 3 2 2 1 1 2 2 1 1 1 1 1 1 4 4 3 2 1 5 13 10 1 2 4 4 4 4 4 2 6 5 2 3 1 3 5 4 3 3 5 5 0 2 2 3 2 2 1 3 5 8 7 2 4 5 4 4 6 6 6 6 5 6 7 8 8 6 6 6 6 6 5 6
11 12 12 12 11 11 10 6 5 10 8 5 7 6 3 2 3 3 2 3 3 4 2 2 1 1 1 2 4 1 2 1 1 4 8 7 1 1 2 2 4 3 2 1 6 5 1 2 1 4 5 5 4 0 1 4 1 4 2 4 4 3 2 4 6 6 5 4 5 5 5 4 6 5 6 6 7 7 7 8 8 8 8 7 7 8 7 6
11 11 11 11 11 11 8 3 6 10 4 4 8 6 2 2 4 3 3 4 3 5 1 1 0 0 1 3 5 0 2 2 2 2 5 5 1 2 2 1 3 3 4 2 4 3 1 3 3 4 4 6 5 1 2 4 2 2 2 4 5 5 1 2 4 4 3 3 5 5 5 3 7 6 6 5 6 7 7 7 7 7 7 7 6 6 7 7
10 10 10 9 10 10 6 2 7 7 2 4 10 6 2 3 4 3 3 5 4 3 2 1 0 1 1 3 4 1 1 3 2 2 3 4 3 2 2 1 1 1 2 3 1 1 1 3 5 5 5 5 2 1 2 4 3 2 2 5 4 3 1 0 3 3 1 3 5 5 4 2 4 6 6 3 3 7 8 7 8 7 6 7 6 6 6 6
10 10 10 8 7 8 6 5 7 5 2 7 10 5 2 4 5 3 5 3 3 1 2 1 0 2 1 1 4 3 1 2 2 1 3 3 3 3 3 2 5 3 1 2 3 3 1 1 1 3 4 2 2 3 2 3 1 3 3 3 2 2 2 3 4 2 2 2 4 6 3 1 5 7 6 3 0 5 7 5 7 7 7 7 6 7 7 6
11 10 9 7 5 5 5 6 5 4 6 9 7 3 4 4 3 4 5 1 2 1 1 1 1 2 3 3 4 3 1 2 1 3 4 3 2 4 3 3 7 6 3 3 4 2 1 1 3 3 3 2 3 2 2 2 0 1 3 3 3 3 3 3 4 2 2 3 2 6 4 2 5 6 5 3 2 2 4 4 6 7 7 7 7 7 7 6
12 10 9 8 4 2 4 4 2 4 8 7 5 3 3 3 4 6 2 3 1 0 1 1 1 1 3 3 4 4 2 1 3 3 3 1 3 6 3 3 6 7 4 6 4 1 2 1 1 2 1 2 2 1 1 2 1 2 4 4 4 4 4 3 2 2 4 3 5 6 2 2 3 6 4 1 1 4 5 4 6 7 7 7 7 6 6 6
12 10 9 8 5 3 4 3 2 4 8 7 5 3 1 2 5 5 3 5 1 1 0 0 2 2 4 3 1 3 2 2 5 3 2 2 5 5 3 2 3 4 4 4 3 2 3 2 1 1 0 1 2 1 0 1 2 3 3 3 3 4 3 2 4 4 3 3 6 5 2 2 2 6 5 5 5 5 7 6 7 7 7 6 6 6 6 6
11 11 9 8 6 6 5 3 3 5 8 7 4 3 4 2 1 4 4 4 1 1 1 1 2 1 3 2 0 2 1 1 3 3 1 1 2 0 1 3 4 1 4 2 1 3 2 0 2 2 1 1 2 1 2 2 4 3 2 3 3 4 4 2 4 3 1 4 3 1 2 1 5 8 8 8 8 7 8 8 8 7 7 7 7 6 6 5
12 11 10 9 9 9 8 7 6 5 6 5 2 4 6 3 4 5 4 2 1 1 1 2 1 1 3 2 0 1 0 1 1 2 1 1 1 3 2 3 4 3 1 3 1 2 3 4 3 1 1 1 2 2 0 1 2 2 2 2 2 1 3 2 4 3 3 5 3 1 2 3 4 5 8 9 9 8 8 8 8 7 7 7 7 6 6 6
13 11 11 10 10 11 9 8 6 3 3 2 3 4 5 3 5 4 3 3 1 2 2 2 2 3 3 1 2 2 2 1 0 2 0 2 1 2 3 3 2 4 3 2 2 2 2 4 1 1 1 2 1 2 3 2 1 1 3 4 3 4 3 3 4 2 4 5 4 3 1 3 2 2 5 8 8 4 5 7 5 5 6 5 6 6 6 6
14 10 11 12 12 11 9 8 6 3 2 3 6 4 5 5 4 2 3 4 2 1 2 2 3 3 2 2 3 1 2 2 1 2 1 1 3 4 2 4 4 3 5 3 3 2 1 5 3 2 2 1 1 2 1 3 1 2 2 3 1 3 4 1 3 4 2 2 4 3 3 5 4 5 6 4 3 1 2 4 4 6 7 5 6 6 5 5
14 10 10 11 12 10 7 6 5 5 4 6 4 3 6 5 3 3 3 3 3 4 3 2 3 3 2 3 3 2 0 1 1 1 1 2 4 5 4 4 5 5 6 5 3 2 1 4 3 3 2 1 1 2 1 1 1 1 1 1 3 3 6 4 1 1 4 1 4 2 3 6 4 4 6 4 4 3 1 5 6 6 7 6 6 6 5 5
15 11 9 10 9 7 6 5 6 7 5 7 4 6 5 3 4 4 2 2 3 5 6 2 1 3 3 2 2 2 0 1 1 1 2 3 3 5 5 3 3 5 5 4 4 3 3 3 4 1 1 1 1 0 1 1 2 2 1 4 3 3 5 4 1 3 5 0 4 2 4 6 3 3 5 4 3 4 5 7 6 7 7 6 6 6 6 6
16 12 10 12 11 7 5 6 9 7 5 5 4 5 3 3 3 2 2 3 3 4 5 3 4 3 3 3 3 3 3 2 2 2 2 2 3 4 5 2 1 1 2 3 2 2 3 2 5 1 1 3 2 2 2 2 1 1 1 2 1 3 1 1 2 0 1 2 4 5 5 4 3 4 4 3 7 7 8 8 6 7 7 6 6 6 6 5
13 8 6 8 10 10 9 9 8 4 5 4 5 5 3 4 3 2 3 2 3 4 3 4 2 2 3 4 3 3 4 4 4 3 2 2 4 3 3 2 1 0 2 3 3 1 2 1 4 2 2 2 3 1 3 1 2 2 2 2 1 3 3 1 2 3 2 2 3 4 6 4 6 6 6 9 10 9 8 7 6 7 7 6 6 6 6 5
7 2 3 3 5 12 14 10 6 4 3 4 5 4 3 3 3 2 3 2 1 2 2 3 2 2 3 3 3 3 3 4 5 3 2 3 4 3 1 1 3 3 1 1 2 1 3 2 4 4 3 1 1 2 5 4 2 2 1 1 1 1 2 1 1 2 4 2 2 1 4 6 7 4 7 10 10 9 9 7 7 7 6 7 7 5 5 5
4 0 4 3 4 13 13 8 3 3 4 3 2 3 3 2 2 1 2 1 1 1 1 3 4 3 4 3 3 4 3 3 4 3 3 3 3 2 1 2 3 4 2 2 1 2 2 3 3 1 1 2 4 4 4 4 4 4 4 4 4 3 4 2 3 2 2 3 4 4 4 9 7 4 6 7 7 9 8 7 6 7 7 7 6 5 6 5
1 2 4 4 5 12 10 4 2 2 4 3 3 3 2 2 3 2 2 0 1 0 1 1 3 3 4 4 3 4 4 3 3 3 3 5 5 3 1 1 0 1 4 3 3 3 3 4 3 2 4 4 5 4 2 3 3 3 2 2 3 3 5 5 3 4 1 1 2 3 2 8 7 4 6 6 6 6 5 5 6 7 8 6 6 6 6 5
1 3 5 5 5 10 5 2 3 1 2 3 2 2 0 2 2 2 2 2 1 2 1 1 3 3 3 3 3 4 4 3 5 5 4 4 4 2 2 2 1 0 3 3 2 2 2 3 2 2 4 3 4 3 1 1 2 1 2 2 4 3 3 5 5 4 2 3 3 2 3 7 7 4 4 5 5 5 5 5 7 7 5 5 6 6 6 5
2 3 4 3 7 8 3 4 4 3 5 2 1 2 1 0 3 3 4 5 3 4 3 2 3 3 2 2 4 5 6 3 4 5 3 3 2 0 0 1 1 2 2 2 2 2 2 2 4 1 4 5 6 5 3 2 0 3 4 3 4 4 5 4 2 2 1 5 6 5 5 8 6 4 4 5 5 6 7 7 7 6 5 5 6 6 6 5
2 3 3 2 6 6 3 4 5 5 5 3 3 4 2 1 3 3 5 5 3 4 3 2 2 2 2 3 3 2 4 2 2 2 1 2 2 1 1 1 1 2 2 2 2 1 2 3 4 5 3 3 3 2 3 2 2 2 3 4 6 6 7 4 2 3 3 5 5 6 7 8 6 6 7 8 7 7 9 7 5 5 6 5 6 6 6 5
1 2 2 2 0 3 3 1 3 4 5 6 4 4 5 5 3 1 2 4 3 3 2 0 2 3 2 3 3 3 3 1 0 0 1 3 2 1 1 1 1 3 3 3 2 1 3 2 3 6 7 6 6 7 5 4 4 3 4 5 7 6 6 5 4 4 6 3 3 8 7 8 13 12 9 10 10 9 10 8 7 6 6 6 6 6 6 5
2 2 2 2 1 2 3 2 1 2 3 6 5 4 8 8 3 1 1 2 2 2 1 0 2 4 3 4 4 3 4 2 1 2 3 3 2 2 2 1 1 3 3 2 2 2 5 2 4 6 8 7 6 6 5 4 4 6 6 5 7 7 6 7 6 6 6 4 6 9 7 8 18 16 12 13 11 9 9 9 8 6 6 7 6 5 6 6
2 2 2 3 2 3 5 4 5 5 5 6 5 4 8 9 7 4 2 1 1 1 3 1 3 7 8 8 6 4 4 3 2 3 2 2 1 1 2 1 1 2 0 1 2 3 5 3 4 5 6 5 4 4 4 4 3 4 7 7 8 9 10 12 13 9 9 7 12 8 8 12 17 15 16 16 9 6 8 8 7 6 7 7 6 6 7 6
2 3 3 2 2 4 5 5 7 9 9 6 4 5 8 10 11 7 2 3 1 3 5 5 7 10 11 8 7 5 5 5 4 5 4 3 3 2 1 2 2 1 2 1 1 1 4 3 3 3 4 5 4 4 3 4 4 3 7 8 8 10 14 14 13 10 10 13 16 11 10 14 15 15 19 16 7 4 7 8 6 8 9 8 6 7 7 6
2 2 2 2 2 4 3 3 6 8 8 6 6 6 6 9 12 7 3 6 6 4 6 10 11 11 11 10 9 7 9 10 7 6 7 5 3 3 3 4 3 1 1 2 1 1 2 3 1 3 2 7 5 2 0 2 3 6 9 6 6 8 10 10 9 7 7 13 16 14 13 15 16 17 17 15 10 6 9 10 8 9 8 6 6 7 7 6
9 4 1 2 3 3 3 2 4 5 6 7 7 5 5 9 12 9 5 9 11 7 9 14 14 9 7 9 10 10 11 12 10 8 10 9 6 6 5 4 6 6 3 3 2 1 3 2 1 4 1 6 5 3 2 2 2 6 13 10 10 10 8 7 7 6 9 14 15 11 8 12 17 14 8 9 10 7 9 9 8 7 6 6 7 7 7 7
13 9 3 2 3 2 4 3 4 5 6 7 8 7 8 9 9 9 7 6 7 9 10 14 14 8 4 8 13 14 12 11 8 6 6 5 4 4 3 4 7 8 7 6 2 2 4 4 2 3 3 5 5 1 3 5 5 6 12 11 14 14 11 7 6 7 13 13 9 8 10 14 14 8 4 7 8 6 8 8 6 7 6 6 8 8 7 7
Wind_Direction
52 42 38 43 49 51 49 46 48 51 53 53 51 55 53 54 50 46 51 56 111 161 168 191 260 251 311 326 327 331 305 282 29 46 52 15 356 351 340 335 346 344 293 330 339 344 337 324 323 322 297 239 203 269 290 326 41 60 75 84 115 169 187 167 180 197 169 199 205 189 174 164 198 228 171 354 255 241 265 267 249 260 258 243 250 262 260 230
51 47 40 37 39 43 44 40 39 41 46 45 43 41 38 44 36 28 16 16 68 181 209 244 270 275 304 316 317 325 308 186 32 36 29 4 360 350 329 330 324 300 307 320 330 341 347 322 333 347 342 116 326 321 353 354 39 78 96 90 174 196 186 172 184 203 192 191 181 182 186 175 193 196 146 223 257 255 251 261 247 259 265 255 251 237 224 201
44 42 41 37 32 32 34 33 30 30 34 36 38 34 28 30 28 27 17 358 5 279 239 256 268 286 299 306 317 318 181 150 41 15 2 0 359 343 325 302 282 298 310 316 313 307 291 286 298 310 1 57 347 5 30 8 34 88 102 91 228 211 192 209 197 233 236 168 154 177 182 188 207 176 148 209 251 261 232 239 221 235 249 244 235 209 198 187
40 37 36 34 30 26 24 25 23 20 21 23 27 27 25 20 22 27 25 7 312 289 260 262 271 280 290 313 319 271 168 109 16 340 352 360 355 343 322 272 274 297 304 310 307 300 287 277 270 255 68 37 341 26 36 358 37 64 90 145 226 191 133 214 224 284 258 157 158 159 142 203 226 175 184 176 221 263 236 229 214 222 236 229 215 198 192 187
33 33 30 27 25 22 18 17 14 11 11 13 14 16 20 19 19 22 26 18 317 267 264 263 265 266 281 331 330 186 143 50 333 340 356 357 352 340 308 271 265 279 301 311 306 304 287 258 143 55 56 45 354 30 16 331 65 64 55 177 220 163 129 248 285 323 37 122 141 142 147 206 195 179 209 167 199 242 226 220 215 223 233 217 201 196 192 194
24 26 26 22 18 15 12 10 6 3 1 4 7 7 9 12 15 15 21 20 351 256 258 250 246 262 282 336 3 144 120 86 323 348 355 356 357 340 305 263 242 271 301 309 310 322 318 348 84 57 55 60 28 53 349 323 50 91 28 343 331 181 164 253 350 343 109 120 143 161 180 203 160 256 231 188 224 234 209 196 203 227 237 223 201 191 193 200
17 18 20 18 15 12 6 3 360 357 355 356 359 3 4 3 6 8 13 17 5 268 241 245 250 267 282 307 30 75 91 111 336 349 352 3 5 343 305 238 240 275 298 311 324 336 49 60 80 103 75 67 78 88 359 335 41 87 132 314 358 129 150 195 52 28 103 138 180 183 192 197 191 243 269 216 237 239 239 241 222 242 242 221 200 192 201 206
16 13 13 13 12 9 3 358 354 353 352 349 350 356 358 357 1 4 6 11 12 1 230 267 269 260 273 262 183 47 44 324 338 347 354 10 14 1 336 235 248 271 287 323 327 297 127 70 105 127 76 70 123 108 338 4 39 74 138 217 317 32 298 310 57 54 68 136 202 156 253 242 207 218 309 254 249 246 242 251 251 258 255 209 202 206 207 210
17 12 8 6 6 5 2 356 350 347 349 347 345 348 350 352 356 359 359 2 23 60 58 347 304 253 242 225 118 59 338 326 343 346 355 9 19 20 2 266 262 271 270 302 328 314 175 106 182 169 131 150 115 95 307 42 48 110 143 168 126 344 314 358 35 31 22 316 76 28 267 274 251 252 280 258 257 265 242 239 244 241 251 230 215 216 210 214
15 13 8 2 359 358 357 354 348 343 344 345 342 342 344 344 349 354 354 354 31 78 37 12 358 243 205 186 81 68 308 351 353 348 360 3 17 34 41 27 305 287 265 313 6 45 105 153 168 139 125 129 93 31 348 95 112 108 118 117 92 359 311 44 29 325 328 270 169 213 266 294 312 303 270 256 256 283 239 235 239 227 240 236 226 226 217 219
10 10 8 2 358 353 352 351 345 341 340 341 341 340 340 340 344 350 353 354 5 58 2 21 39 74 125 101 90 101 337 7 1 359 2 358 20 38 43 37 358 263 126 74 45 47 70 152 145 122 104 115 85 32 21 85 96 105 121 92 12 354 313 56 14 320 325 275 174 182 262 289 5 226 245 250 270 36 241 246 243 222 237 237 232 234 221 225
6 5 5 3 359 352 349 347 342 340 337 337 338 340 340 337 339 345 355 358 332 327 313 356 27 53 69 66 86 103 8 14 5 2 358 356 22 36 37 38 42 74 165 83 54 29 81 177 124 87 52 121 98 41 77 98 98 145 147 98 330 359 5 297 321 350 359 297 167 158 298 289 200 222 242 250 313 353 280 258 252 228 238 240 237 240 231 234
4 1 1 1 360 354 349 345 341 337 334 333 332 339 341 336 339 343 350 354 345 49 16 349 338 314 67 58 26 26 16 11 4 355 1 10 23 40 37 39 51 65 89 89 68 48 100 143 104 95 94 102 114 143 116 79 85 212 359 98 343 4 1 310 37 31 358 154 145 118 317 288 225 232 248 264 308 312 288 267 260 242 243 244 238 241 243 241
360 358 357 358 358 355 349 345 341 333 332 330 325 331 336 335 340 342 348 348 350 64 9 8 29 52 82 85 279 20 358 351 6 359 7 18 29 62 48 48 55 65 81 84 75 65 90 107 93 91 69 87 131 121 61 18 42 49 1 53 26 17 300 298 25 77 16 337 97 98 267 273 261 252 257 270 263 244 267 270 261 255 250 245 241 236 245 245
354 354 354 355 356 354 349 346 341 334 330 325 321 322 325 330 336 344 348 338 310 18 2 7 15 59 75 34 283 1 345 350 7 1 360 2 15 35 12 33 50 58 76 77 80 73 75 87 79 79 62 43 81 80 34 356 14 43 36 328 356 46 275 303 309 146 187 288 65 110 239 274 278 272 260 259 268 227 262 272 265 264 258 250 247 236 242 251
348 350 351 351 353 354 348 345 342 335 329 324 319 314 316 322 326 337 341 336 314 263 307 22 20 82 96 49 339 356 350 5 356 354 351 349 2 359 342 351 28 39 74 78 85 77 56 64 64 84 110 37 53 80 44 20 356 1 69 260 284 297 292 316 323 183 209 294 331 187 241 280 278 276 273 277 317 299 278 276 269 263 263 256 252 244 245 256
345 346 347 349 351 352 348 345 344 338 331 324 318 310 310 314 319 330 329 331 24 354 126 80 44 79 89 57 101 347 330 335 339 345 350 349 352 345 344 352 8 13 60 64 58 49 32 44 68 116 71 44 50 84 59 29 316 320 30 308 260 256 271 304 312 296 15 262 267 257 226 262 272 280 290 291 291 286 274 277 274 265 263 258 254 255 251 251
342 341 343 346 347 350 348 343 344 341 334 329 321 314 310 308 314 334 334 278 226 32 90 66 43 83 58 3 103 298 307 309 324 343 352 352 346 346 5 24 356 354 21 37 31 30 17 19 74 57 27 23 24 70 98 211 211 217 247 317 300 296 262 264 272 288 22 318 258 276 258 269 281 289 294 295 308 292 276 275 279 276 268 262 258 254 252 251
341 339 340 342 345 348 347 344 345 344 339 335 325 314 311 311 311 355 29 51 107 288 192 319 20 136 228 308 301 304 303 299 315 348 358 356 349 360 36 27 16 40 51 28 8 20 30 18 48 69 45 14 15 95 144 197 161 161 187 178 239 274 269 259 263 260 6 311 265 244 255 279 293 300 301 312 344 310 284 284 285 284 280 273 265 255 253 250
341 338 336 338 342 345 347 345 343 346 347 346 342 335 327 339 343 349 22 42 69 159 150 244 204 178 287 314 320 323 314 288 295 354 2 359 356 43 33 12 22 45 56 36 337 4 72 65 65 163 181 202 217 162 132 128 113 119 152 196 233 241 276 273 275 296 352 334 269 235 270 285 285 290 294 313 337 324 310 318 304 297 298 285 276 269 262 249
344 338 334 335 337 342 347 344 342 349 353 353 358 11 106 115 30 329 350 11 274 195 177 246 211 262 287 287 326 343 353 283 294 357 7 360 6 56 337 15 46 35 8 303 293 346 61 85 170 212 201 198 212 182 65 63 92 101 175 233 277 233 259 271 243 304 359 15 272 288 326 293 284 291 297 319 338 324 322 322 311 315 315 303 288 278 274 268
346 340 334 332 334 340 343 344 344 347 354 3 14 45 105 112 134 246 36 354 281 228 258 288 269 300 283 272 322 350 45 39 336 349 2 360 18 50 329 44 79 84 349 358 1 13 40 112 217 222 199 179 18 45 77 88 105 88 176 203 312 266 282 299 291 313 353 31 271 320 337 294 291 298 298 311 297 279 288 283 284 305 321 327 316 293 292 296
346 341 336 330 332 337 340 344 345 351 7 17 24 48 65 63 99 349 45 95 303 285 299 326 356 315 315 312 332 6 58 58 307 325 353 1 24 66 68 69 78 84 5 22 116 92 68 237 234 181 95 90 43 48 95 125 114 87 154 95 286 297 355 306 295 324 328 250 260 300 307 287 310 324 309 309 291 292 314 318 309 301 306 309 306 297 292 296
341 343 338 330 331 335 337 342 352 1 11 26 34 47 65 57 53 1 2 69 321 289 284 284 211 234 282 348 358 25 89 105 220 310 349 11 73 52 84 112 84 58 1 26 129 123 130 271 263 83 62 95 117 38 87 125 9 314 207 161 225 287 335 249 283 322 328 320 284 320 344 309 335 351 316 316 346 350 349 4 4 345 325 316 325 331 306 286
336 340 339 333 330 333 333 335 7 5 10 47 36 26 37 3 1 10 52 56 333 297 307 288 237 194 197 18 358 10 131 69 217 283 343 19 94 40 81 130 92 106 254 112 107 99 73 293 351 84 55 74 116 300 118 140 278 307 224 178 165 174 215 280 312 338 13 358 317 17 37 301 322 335 283 310 357 350 351 13 0 334 336 345 348 346 336 323
330 334 341 339 328 332 334 320 352 356 16 56 14 359 350 329 350 13 73 60 327 279 276 217 186 166 224 355 348 37 106 327 288 292 353 21 21 110 105 11 53 148 198 152 109 117 75 358 40 103 96 67 74 242 225 131 104 312 218 164 147 144 149 345 355 18 49 308 308 44 93 250 319 316 269 314 345 321 336 359 341 323 331 341 338 333 335 340
325 328 339 343 332 338 349 312 335 354 64 11 355 351 310 316 338 352 64 42 312 241 133 246 333 68 220 312 342 94 168 296 325 359 17 28 352 64 102 291 69 122 173 134 146 235 86 29 40 72 82 69 75 221 207 123 112 285 195 134 126 103 54 93 63 51 241 273 324 16 88 164 297 278 268 307 316 315 344 350 333 329 328 329 331 329 328 325
317 321 333 344 338 338 342 326 336 6 3 332 343 345 307 313 323 354 83 70 291 173 90 284 116 43 313 332 21 81 223 315 68 283 343 36 347 31 67 183 152 138 38 129 221 260 69 76 109 101 88 103 212 217 194 134 105 260 191 138 118 106 136 146 95 65 277 343 330 323 22 71 265 275 304 339 129 326 345 338 316 316 321 327 328 325 322 316
310 315 326 335 331 322 325 331 350 10 338 330 347 338 301 311 336 48 83 160 265 64 57 351 71 340 351 24 19 25 355 7 97 275 333 37 3 36 82 164 133 119 41 71 177 215 59 213 199 142 131 207 231 234 190 140 107 205 140 85 46 68 84 87 93 105 22 33 271 283 353 17 277 283 312 10 70 285 289 288 285 286 297 307 310 317 319 319
306 308 317 325 326 301 304 310 332 6 352 345 347 329 306 334 44 68 66 237 225 15 243 49 249 286 43 54 348 353 34 336 329 335 351 33 14 30 96 151 107 103 33 34 88 134 334 280 187 111 146 195 174 199 173 135 134 121 97 55 30 28 48 57 59 98 57 357 254 254 329 50 311 285 262 262 174 180 190 235 265 272 287 295 300 309 314 316
304 302 306 314 313 288 291 281 248 347 358 352 338 338 19 32 62 102 214 242 215 309 293 349 309 28 76 120 283 345 39 331 331 5 9 8 23 28 66 101 89 71 10 14 52 345 348 29 330 313 260 149 110 87 100 91 79 92 88 54 28 350 11 26 347 34 74 288 261 254 320 79 235 262 245 242 244 191 169 190 218 237 259 278 295 300 303 310
302 296 294 296 290 272 260 250 267 317 345 346 340 25 83 82 98 175 235 294 327 246 202 208 278 69 96 110 60 327 16 336 353 53 94 54 55 243 140 160 175 47 332 274 261 326 320 251 292 313 341 114 113 59 8 7 37 65 66 52 48 346 357 353 320 353 195 251 274 311 353 269 231 247 249 255 257 226 196 190 192 203 226 251 275 291 300 307
302 293 287 281 275 265 253 256 274 299 326 337 358 47 78 119 223 211 224 299 308 254 22 77 53 95 107 94 287 264 205 239 2 62 149 121 41 267 253 198 174 135 249 220 191 326 308 303 316 326 324 58 124 136 154 297 40 76 172 104 95 70 34 311 285 311 274 268 291 314 320 281 269 265 240 242 253 230 200 193 196 199 209 232 258 284 301 304
305 290 280 272 266 261 256 256 263 283 311 354 64 73 98 174 234 219 210 239 260 335 5 73 59 46 74 130 241 231 168 235 18 90 92 53 47 273 276 252 191 113 106 151 192 181 252 287 295 157 263 14 57 174 164 156 102 177 176 132 135 153 143 245 246 238 266 286 299 300 275 206 212 270 234 234 261 259 186 189 215 239 241 253 281 301 306 301
307 291 282 274 266 262 258 252 246 224 207 73 68 97 168 205 235 210 208 221 214 4 1 34 78 65 356 307 289 261 184 244 12 98 107 121 179 208 217 217 203 136 118 158 230 155 172 260 269 306 280 81 29 260 124 97 121 222 156 101 98 170 139 156 193 186 195 316 301 277 235 218 211 273 289 274 260 56 121 204 249 273 276 305 315 302 297 296
310 299 289 270 264 265 257 243 225 195 156 93 81 192 210 219 210 191 196 167 150 153 131 40 71 106 296 300 312 326 74 249 38 96 242 221 201 209 212 213 198 172 148 157 204 160 131 275 294 341 323 98 163 265 32 91 212 211 118 188 233 152 114 113 199 330 68 64 283 272 260 292 323 296 316 36 120 128 177 240 249 269 285 315 304 280 283 289
320 313 292 261 256 257 241 222 196 183 134 95 141 214 225 225 193 182 184 124 124 133 124 136 212 178 221 255 276 276 176 269 294 140 236 250 233 209 206 230 202 185 181 174 208 195 150 265 302 35 4 290 220 176 341 261 186 117 152 224 229 113 92 96 113 355 39 201 277 311 266 292 339 297 321 42 139 204 238 239 255 280 285 288 278 274 279 280
327 321 293 259 245 231 213 202 188 171 103 98 199 234 220 212 202 176 172 139 112 99 116 189 217 191 191 197 239 230 165 198 229 181 202 246 250 206 179 203 168 176 210 170 207 260 139 237 300 347 182 305 2 68 308 302 95 112 194 215 127 127 115 66 121 193 358 263 284 308 296 272 220 234 266 222 204 217 233 238 257 268 257 258 271 286 294 295
324 325 298 259 232 209 191 187 177 123 80 141 209 239 221 224 245 211 183 149 106 110 151 216 210 135 169 171 193 207 177 189 193 184 186 195 240 233 167 177 129 126 265 151 159 227 104 141 283 282 217 297 9 77 236 259 43 21 333 340 10 151 166 160 139 165 195 243 271 309 326 284 229 215 199 207 209 204 214 228 240 242 236 242 258 278 289 288
326 331 286 284 205 189 177 165 144 98 120 188 203 216 222 235 251 231 213 201 148 143 196 207 164 155 190 179 188 188 166 174 171 179 219 203 233 262 261 122 137 158 286 43 131 134 67 117 247 289 313 263 223 207 198 187 158 122 122 292 288 154 143 181 235 139 146 171 198 258 303 270 248 215 191 206 204 193 196 205 225 238 234 242 253 260 266 265
338 293 270 318 179 179 160 138 142 157 170 203 208 213 223 199 170 220 259 257 169 205 193 166 164 176 170 170 212 191 152 162 175 188 239 223 213 251 333 61 140 158 121 70 154 187 118 149 187 260 298 210 232 239 196 180 170 156 177 196 184 158 126 136 278 291 118 159 178 168 261 270 258 212 208 213 194 196 200 189 208 234 230 240 260 255 247 251
13 201 271 342 186 180 149 133 214 151 148 199 212 210 212 162 156 175 211 355 68 161 48 120 166 171 169 177 194 171 149 170 191 191 226 220 209 224 215 105 174 175 124 140 224 212 137 113 122 205 219 218 252 263 166 157 150 141 198 205 152 143 124 134 211 251 177 181 177 132 242 272 266 221 222 232 215 221 227 196 204 225 227 246 279 276 263 252
170 216 288 330 201 182 144 189 246 183 203 236 239 227 166 141 160 154 185 207 182 146 68 269 194 189 213 190 152 168 183 186 190 195 221 226 219 232 201 172 280 297 120 144 201 185 127 105 114 270 291 313 312 322 56 80 82 132 247 200 150 166 146 149 176 180 165 193 175 131 254 268 277 265 239 251 260 274 280 239 219 225 249 280 282 277 276 271
219 232 287 290 197 187 176 204 202 208 228 254 331 250 311 174 171 154 180 204 195 158 154 221 207 190 209 155 124 180 199 198 204 206 213 213 212 283 237 238 255 164 151 174 156 159 224 158 114 56 337 340 341 349 342 321 210 210 234 201 179 153 112 122 143 107 245 225 168 159 243 256 274 308 307 295 291 279 268 254 235 234 264 289 285 281 277 275
256 246 283 254 186 183 202 195 164 181 204 182 196 212 192 235 222 186 186 196 186 165 163 215 202 138 130 120 100 171 187 192 229 212 191 227 247 325 331 277 233 179 212 242 206 195 209 168 127 128 172 242 264 265 260 246 203 225 225 194 195 166 137 153 133 113 242 243 156 175 238 258 276 303 306 291 282 270 261 261 262 252 254 270 279 279 275 273
269 249 291 327 304 190 224 213 136 164 184 174 204 216 184 210 265 273 190 194 182 161 153 236 153 109 92 140 152 209 214 195 59 184 225 234 256 301 254 250 216 208 219 218 223 86 100 177 182 161 187 209 201 216 218 147 129 200 212 194 194 182 152 130 111 162 199 183 191 222 236 279 281 273 270 267 265 268 274 280 283 272 264 271 269 264 269 268
256 239 196 197 302 234 238 280 176 197 204 184 192 197 189 203 226 14 265 229 197 158 138 64 153 159 178 172 171 210 208 156 106 196 210 211 240 305 281 255 297 255 237 211 224 109 96 258 230 187 222 228 187 211 216 143 161 197 193 191 188 180 154 147 185 207 159 131 256 239 197 246 270 267 262 260 255 255 265 268 265 257 258 271 273 270 274 272
232 241 195 192 211 205 213 220 198 213 233 208 193 184 189 197 193 185 207 241 300 214 174 211 228 200 190 173 167 185 175 154 204 214 189 161 181 344 340 278 279 293 339 4 305 114 121 243 228 188 248 260 195 225 218 175 208 194 184 197 184 171 176 192 214 206 155 192 250 240 180 220 254 267 268 266 257 239 242 240 240 250 261 268 268 261 260 265
240 252 281 258 211 211 211 187 177 205 223 212 206 203 189 191 198 201 158 114 258 253 198 209 228 212 202 181 163 172 176 170 211 224 195 161 168 158 144 219 237 356 70 120 291 144 149 228 221 174 275 288 257 252 219 198 242 247 224 212 182 186 198 206 222 210 192 230 253 256 247 249 256 261 264 270 274 253 257 259 256 263 267 260 245 234 239 251
225 228 273 292 261 226 205 152 166 205 219 203 216 224 192 189 200 204 162 162 193 221 199 210 220 209 203 193 179 192 195 183 195 208 176 154 171 191 197 199 172 86 64 162 215 260 207 236 198 118 319 297 296 328 112 185 227 259 257 231 186 212 222 225 239 224 213 247 255 258 268 271 266 259 261 273 281 273 272 274 267 262 257 239 223 221 229 243
231 246 316 326 286 220 177 161 158 187 212 205 209 210 198 209 203 193 209 207 199 191 183 202 217 215 199 193 197 212 209 198 205 201 174 168 182 194 206 190 148 140 171 188 160 158 179 224 18 84 84 283 308 32 70 75 54 279 272 247 210 215 218 218 227 199 199 231 247 256 265 262 261 261 260 263 262 258 262 262 262 265 247 208 207 216 222 231
231 256 277 267 282 228 191 194 170 189 217 208 201 202 213 223 197 179 215 239 209 204 192 193 206 209 183 195 209 218 217 207 204 192 168 155 140 141 161 154 139 142 163 167 150 165 160 160 158 120 162 263 298 32 108 69 40 286 265 235 207 208 216 231 249 222 210 215 226 235 236 243 256 273 274 250 240 243 252 242 235 252 242 206 207 212 213 220